DECAYED

FALCON 9 R/B, 62029 (Decayed)

Orbit data source: Space-Track

FALCON 9 R/B, 62029 was space debris in LEO originally from a launch on Mon, 18 Nov 2024 UTC launched from the Air Force Eastern Test Range (AFETR). Debris objects in space refer to the collection of defunct objects orbiting the Earth. Examples of debris include non-operational satellites, rocket bodies, and fragments generated from explosions, collisions, or faulty payload assembly.

Not visible in the next 10 days
Identifier
62029, 2024-214B
Orbit
Decayed
Country
Flag of USUS
Related business
Manufacturer
SpaceX
Mission
Decayed spacecraft
Bus & Motor
F9ST2, Unknown motor
Mass
~4,000 kg wet, ~4,000 kg dry
Launch date (UTC)
2024-11-18 (2 years ago)
Launch vehicle
Unknown
Launch site
Air Force Eastern Test Range (AFETR)
Object type
Payload
Rocket body
Debris
Shape & HBR
Cyl, 7.8 m
Radar Cross Section
39.980 m², Large (>1 m²)

Expand to show TLE details & history
Last TLE update: 1 year ago

TLE from 1 year ago
0 FALCON 9 R/B
1 62029U 24214B   25103.96199847  .00002311 -72994-5  00000+0 0  9999
2 62029  27.6609 124.9151 0788001 251.9017 176.7563 14.75115204  2268
Epoch: 2025-04-13T23:05Z
TLE epoch observation values (Epoch: 2025-04-13T23:05:16.667Z)
Latitude
25.81503°
Longitude
2.89672°
Altitude
1,195.646 km
Speed
6.97 km/s
True Right ascension
12h 46m 23s
True Declination
25° 41' 18"
Sunlit
Object was in full shadow at epoch
Visualization orbit readout
Latitude
Unknown
Longitude
Unknown
Altitude
Unknown
Speed
Unknown
Apparent Right ascension
Unknown
Apparent Declination
Unknown
Sunlit
N/A
Visualization observer readout
Local Sidereal Time
08:33:02
Azimuth
Unknown
Elevation
Unknown
Doppler factor
Unknown
Orbital elements
Apogee altitude
1,202.821 km
Perigee altitude
95.33 km
Semi-major axis
7,027.213 km
Eccentricity
0.0788
Inclination
27.6609°
RAAN
124.9151°
Arg. of periapsis
251.9017°
True anomaly
177.22134°
Mean anomaly
176.7563°
Eccentric anomaly
176.99313°
Mean motion
3.68441 °/min
Orbital period
97.71 mins
BSTAR
0
Loading maneuver chart data...
Computing Atmospheric mass density...
Loading historical data...
Loading historical data...
Loading historical data...
Loading historical data...
Loading historical data...
Loading historical data...
Loading historical data...
Other satellites on launch #214 in the year 2024 (2024-11-18 UTC)

Documentation

Showing up to 5 results
|